[[{"header":{"parameterUnit":"m.s-1","parameterCategory":1,"la1":30.2991,"la2":30.254,"lo1":-89.0895,"lo2":-89.0444,"dy":0.0017,"dx":0.0017,"nx":28,"ny":28,"refTime":"2023-10-31T09:00:00:Z","depth":0,"parameterNumber":2,"parameterNumberName":"U-component_of_WINDS"},"data":[0,0,0,0,0,0,0,0,0,0,0,0,0,0,0,0,0,0,0,0,0,0,0,0,0,0,0,0,0,0,0,0,0,0,0,0,0,0,0,0,0,0,0,0,0,0,0,0,0,0,0,0,0,0,0,0,0,0,0.3542,0.3541,0,0.3491,0.3491,0.349,0.348,0.348,0.3481,0.3481,0.3427,0.3426,0.3424,0,0,0,0,0,0,0,0,0,0,0,0,0,0.3628,0.3627,0.3542,0.3541,0.3541,0.3492,0.3491,0.349,0.348,0.348,0.3481,0.3481,0.3428,0.3426,0.3424,0,0,0,0,0,0,0,0,0,0,0,0,0,0.3585,0.3626,0.3542,0.353,0.3528,0.3492,0.3491,0.349,0.348,0.348,0.3481,0.3481,0.3429,0.3426,0.3423,0.3395,0,0,0.3415,0.3414,0,0,0,0,0,0,0,0,0.3588,0.3582,0.3532,0.353,0.3529,0.3493,0.3502,0.3458,0.348,0.3498,0.3481,0.3482,0.3448,0.3444,0.3433,0.3393,0.339,0.3415,0.3413,0.3412,0.3411,0,0,0,0,0,0,0,0.3591,0.3584,0.3522,0.3531,0.3529,0.3526,0.3521,0.3493,0.347,0.3496,0.3496,0.349,0.3448,0.3436,0.3432,0.339,0.3415,0.3413,0.3411,0.341,0.3324,0.3324,0,0,0,0,0,0,0.3596,0.3587,0.3523,0.352,0.356,0.3524,0.3518,0.3503,0.3471,0.3466,0.3489,0.349,0.344,0.3435,0.343,0.3395,0.3412,0.341,0.3408,0.3325,0.3324,0.3324,0,0,0,0,0,0,0.3598,0.3591,0.3525,0.3553,0.3545,0.3522,0.3506,0.3502,0.3491,0.3466,0.3461,0.3482,0.3441,0.3434,0.3404,0.3393,0.3408,0.3406,0.3326,0.3325,0.3324,0.3326,0,0,0,0,0,0,0.3601,0.3591,0.358,0.3553,0.3543,0.3501,0.3505,0.3501,0.3486,0.3486,0.3457,0.3453,0.344,0.3408,0.3402,0.339,0.3404,0.3327,0.3325,0.3324,0.3326,0.3325,0.3324,0,0,0,0,0,0.3604,0.3582,0.358,0.3572,0.3529,0.35,0.3494,0.3481,0.3485,0.3474,0.3458,0.3454,0.3396,0.3406,0.3398,0.3385,0.3327,0.3326,0.3324,0.3327,0.3325,0.3324,0,0,0,0,0,0,0.3607,0.3578,0.3575,0.3545,0.3525,0.3498,0.3484,0.3479,0.3457,0.3458,0.3442,0.3435,0.3407,0.3393,0.3404,0.3357,0.3362,0.3359,0.3367,0.3365,0.3363,0.3367,0.3402,0,0,0,0,0,0.3605,0.3584,0.356,0.3535,0.3525,0.3506,0.3493,0.3485,0.3463,0.3455,0.3437,0.3416,0.3393,0.3378,0.3356,0.3325,0.3319,0.3313,0.3311,0.331,0.3307,0.3291,0.3288,0.3319,0.3319,0.3319,0,0,0.3599,0.3581,0.3568,0.3535,0.3519,0.3498,0.3499,0.3476,0.346,0.3451,0.3422,0.3409,0.3384,0.3354,0.334,0.3342,0.3298,0.3308,0.3307,0.3305,0.3289,0.3286,0.3283,0.3318,0.3318,0.3318,0,0,0.3577,0.3561,0.3539,0.3523,0.35,0.3487,0.3482,0.3457,0.3447,0.3419,0.3412,0.3392,0.3353,0.3337,0.3323,0.3297,0.3292,0.329,0.3282,0.3266,0.3264,0.3261,0.3252,0.3249,0.3288,0.3288,0.3288,0,0.3573,0.354,0.3528,0.3506,0.3492,0.3484,0.3462,0.3447,0.3416,0.3407,0.341,0.3361,0.3344,0.3311,0.3305,0.3294,0.3287,0.3293,0.3265,0.3263,0.326,0.3252,0.3248,0.3288,0.3288,0.3288,0.3288,0,0.3536,0.3514,0.3499,0.3471,0.3455,0.3433,0.3417,0.3403,0.3397,0.3384,0.3356,0.3335,0.3309,0.3301,0.3294,0.3266,0.3268,0.3268,0.3273,0.3258,0.3249,0.3245,0.3288,0.3288,0.3288,0.3288,0,0,0.3513,0.3481,0.3475,0.3463,0.3437,0.3419,0.3397,0.3373,0.3361,0.3341,0.3321,0.329,0.329,0.3275,0.3266,0.3252,0.3233,0.3254,0.3253,0.3251,0.3202,0.3202,0.3199,0.3231,0.323,0.3229,0.3205,0,0.3488,0.3449,0.3438,0.3404,0.3384,0.3377,0.3358,0.334,0.3329,0.3309,0.3296,0.3274,0.3276,0.3267,0.3253,0.3239,0.3223,0.324,0.3212,0.3211,0.3218,0.3194,0.3193,0.3171,0.3201,0.3201,0.32,0,0.3453,0.3433,0.3398,0.3376,0.3367,0.335,0.3327,0.3309,0.3289,0.3282,0.3266,0.3258,0.3235,0.3242,0.321,0.3222,0.321,0.3201,0.32,0.3196,0.3204,0.3189,0.3163,0.316,0.3195,0.3195,0.3195,0,0.344,0.3405,0.3379,0.3369,0.3343,0.3331,0.3319,0.33,0.3286,0.3266,0.3257,0.3235,0.3222,0.3205,0.3192,0.3199,0.3161,0.3167,0.3154,0.3155,0.3146,0.3146,0.3117,0.3139,0.3139,0.3139,0.314,0,0.3412,0.3391,0.3373,0.3358,0.3334,0.3322,0.3299,0.3287,0.327,0.3252,0.3245,0.3228,0.3212,0.3193,0.3183,0.3159,0.3153,0.3146,0.3144,0.3146,0.3147,0.3138,0.3139,0.3139,0.3139,0.3139,0.3139,0,0.3393,0.3381,0.3352,0.333,0.3325,0.3308,0.3289,0.3273,0.3263,0.324,0.3234,0.3216,0.3194,0.318,0.3151,0.3144,0.3117,0.3115,0.3124,0.3123,0.3111,0.3112,0.3074,0.3068,0.3095,0.3094,0.3094,0,0.3376,0.336,0.3337,0.3324,0.3313,0.3293,0.328,0.3268,0.3254,0.3231,0.3219,0.3196,0.3177,0.3142,0.3126,0.3105,0.3102,0.309,0.3098,0.3102,0.3102,0.3103,0.3101,0.3088,0.3088,0.3088,0.3088,0,0.3347,0.3342,0.3323,0.3303,0.3287,0.327,0.3253,0.3243,0.3229,0.3214,0.3192,0.3177,0.3149,0.3126,0.3104,0.3092,0.3087,0.3086,0.3082,0.3084,0.309,0.3086,0.312,0.3086,0.3086,0.3087,0.3087,0.3087,0.3328,0.3314,0.3296,0.3275,0.3262,0.3246,0.3231,0.3219,0.32,0.3177,0.3171,0.3148,0.3129,0.3099,0.3086,0.3068,0.3069,0.3063,0.3062,0.306,0.306,0.3094,0.3063,0.3064,0.3064,0.3064,0.3064,0,0.3299,0.3288,0.3269,0.3246,0.323,0.3229,0.3211,0.3197,0.3177,0.316,0.3143,0.3118,0.3096,0.308,0.3059,0.3047,0.3045,0.3042,0.3042,0.3039,0.306,0.3065,0.3044,0.3044,0.3044,0.3044,0.3044,0.3044,0.3282,0.3258,0.3251,0.322,0.3208,0.3186,0.3176,0.3162,0.3149,0.3121,0.3104,0.3094,0.3078,0.3055,0.3036,0.3032,0.3024,0.3021,0.3017,0.3036,0.3038,0.304,0.3045,0.302,0.302,0.2998,0.2998,0.2998]},{"header":{"parameterUnit":"m.s-1","parameterCategory":1,"la1":30.2991,"la2":30.254,"lo1":-89.0895,"lo2":-89.0444,"dy":0.0017,"dx":0.0017,"nx":28,"ny":28,"refTime":"2023-10-31T09:00:00:Z","depth":0,"parameterNumber":3,"parameterNumberName":"V-component_of_WINDS"},"data":[0,0,0,0,0,0,0,0,0,0,0,0,0,0,0,0,0,0,0,0,0,0,0,0,0,0,0,0,0,0,0,0,0,0,0,0,0,0,0,0,0,0,0,0,0,0,0,0,0,0,0,0,0,0,0,0,0,0,-8.4565,-8.4566,0,-8.4676,-8.4677,-8.4678,-8.4596,-8.4593,-8.4589,-8.4586,-8.4692,-8.4698,-8.4704,0,0,0,0,0,0,0,0,0,0,0,0,0,-8.4277,-8.4283,-8.4565,-8.4566,-8.4568,-8.4675,-8.4677,-8.4678,-8.4597,-8.4593,-8.4588,-8.4584,-8.469,-8.4697,-8.4704,0,0,0,0,0,0,0,0,0,0,0,0,0,-8.4396,-8.4285,-8.4565,-8.454,-8.4539,-8.4675,-8.4677,-8.4679,-8.4598,-8.4592,-8.4587,-8.4582,-8.4687,-8.4696,-8.4705,-8.4869,0,0,-8.4734,-8.4737,0,0,0,0,0,0,0,0,-8.439,-8.4407,-8.4543,-8.4542,-8.4541,-8.4617,-8.4614,-8.4742,-8.4599,-8.4575,-8.4586,-8.4579,-8.4671,-8.4681,-8.4713,-8.4874,-8.4879,-8.4734,-8.474,-8.4744,-8.4746,0,0,0,0,0,0,0,-8.4381,-8.4402,-8.4608,-8.4545,-8.4544,-8.4522,-8.4533,-8.4638,-8.4651,-8.4577,-8.4571,-8.4586,-8.4669,-8.4704,-8.4715,-8.488,-8.4734,-8.4742,-8.4748,-8.4752,-8.5181,-8.5186,0,0,0,0,0,0,-8.4376,-8.4395,-8.4605,-8.4612,-8.4451,-8.4531,-8.4544,-8.4598,-8.465,-8.4653,-8.459,-8.4582,-8.4691,-8.4704,-8.4718,-8.4914,-8.4744,-8.4752,-8.4758,-8.5175,-8.5182,-8.5188,0,0,0,0,0,0,-8.4371,-8.4396,-8.46,-8.4502,-8.4527,-8.4542,-8.4603,-8.4603,-8.4638,-8.466,-8.4661,-8.4624,-8.4688,-8.4705,-8.4833,-8.4916,-8.4757,-8.4765,-8.5168,-8.5177,-8.5185,-8.5305,0,0,0,0,0,0,-8.4363,-8.4394,-8.4458,-8.4504,-8.4532,-8.4715,-8.4609,-8.4609,-8.4655,-8.4645,-8.4692,-8.4695,-8.4685,-8.482,-8.4842,-8.4926,-8.4772,-8.5161,-8.5172,-8.5182,-8.5294,-8.5317,-8.5337,0,0,0,0,0,-8.4353,-8.4486,-8.4462,-8.4487,-8.4613,-8.472,-8.4736,-8.4723,-8.4662,-8.4725,-8.474,-8.4694,-8.4904,-8.4833,-8.4858,-8.4946,-8.5155,-8.5169,-8.5182,-8.5284,-8.5313,-8.5337,0,0,0,0,0,0,-8.4446,-8.4491,-8.4465,-8.4618,-8.4666,-8.4706,-8.4786,-8.4754,-8.4818,-8.4806,-8.4785,-8.4797,-8.4931,-8.4951,-8.4871,-8.5107,-8.5019,-8.5038,-8.5089,-8.5116,-8.5137,-8.5129,-8.478,0,0,0,0,0,-8.4485,-8.4571,-8.4605,-8.4736,-8.4762,-8.477,-8.4817,-8.4803,-8.4851,-8.487,-8.4894,-8.4941,-8.5017,-8.5068,-8.5139,-8.5297,-8.5305,-8.5369,-8.5391,-8.5409,-8.5425,-8.5509,-8.5538,-8.5232,-8.5232,-8.5232,0,0,-8.4565,-8.46,-8.4655,-8.4756,-8.4792,-8.4879,-8.4788,-8.4884,-8.4948,-8.4884,-8.5007,-8.5026,-8.5076,-8.522,-8.5284,-8.5241,-8.5511,-8.5425,-8.5439,-8.5446,-8.5526,-8.5555,-8.5581,-8.5241,-8.5239,-8.5238,0,0,-8.4756,-8.4792,-8.4906,-8.4944,-8.5001,-8.5006,-8.5033,-8.5079,-8.509,-8.5213,-8.5167,-8.5242,-8.5374,-8.5413,-8.5449,-8.5657,-8.5616,-8.568,-8.5792,-8.5875,-8.5899,-8.592,-8.5994,-8.6021,-8.5696,-8.5697,-8.5697,0,-8.4847,-8.498,-8.4967,-8.5068,-8.5113,-8.5062,-8.5176,-8.5213,-8.529,-8.5321,-8.5272,-8.5438,-8.5468,-8.562,-8.5671,-8.5702,-8.5732,-8.5674,-8.5897,-8.5918,-8.5938,-8.6008,-8.6036,-8.5704,-8.5703,-8.5702,-8.5702,0,-8.509,-8.5183,-8.5267,-8.5346,-8.54,-8.5507,-8.5508,-8.5565,-8.5547,-8.5556,-8.5682,-8.5717,-8.5795,-8.583,-8.5812,-8.598,-8.5951,-8.59,-8.5812,-8.5975,-8.604,-8.6067,-8.5715,-8.5712,-8.571,-8.5708,0,0,-8.5341,-8.5413,-8.5444,-8.5479,-8.5539,-8.5609,-8.5713,-8.5792,-8.5841,-8.5895,-8.5981,-8.6095,-8.6049,-8.609,-8.6076,-8.6149,-8.6311,-8.6089,-8.609,-8.6129,-8.6497,-8.6535,-8.6566,-8.6285,-8.629,-8.6294,-8.6493,0,-8.5535,-8.572,-8.5712,-8.5883,-8.5968,-8.5921,-8.6012,-8.6057,-8.6069,-8.6141,-8.6152,-8.6234,-8.6167,-8.6192,-8.6262,-8.6277,-8.6385,-8.6262,-8.6363,-8.6367,-8.6352,-8.66,-8.664,-8.6826,-8.6518,-8.6522,-8.6526,0,-8.5786,-8.5852,-8.6033,-8.6081,-8.6116,-8.6198,-8.627,-8.634,-8.639,-8.6393,-8.6442,-8.6416,-8.6519,-8.6429,-8.6571,-8.6488,-8.6528,-8.6542,-8.6548,-8.6557,-8.6456,-8.6615,-8.6884,-8.6912,-8.6566,-8.6563,-8.656,0,-8.5951,-8.6085,-8.6211,-8.6242,-8.6301,-8.636,-8.6387,-8.6432,-8.648,-8.6542,-8.6573,-8.6646,-8.6685,-8.6741,-8.6735,-8.667,-8.6879,-8.6788,-8.6883,-8.6884,-8.6928,-8.6925,-8.7208,-8.6956,-8.6956,-8.6955,-8.6954,0,-8.6168,-8.628,-8.6286,-8.6363,-8.6487,-8.6476,-8.6599,-8.6619,-8.666,-8.6739,-8.6702,-8.6776,-8.6764,-8.6838,-8.6834,-8.6952,-8.6969,-8.6974,-8.6971,-8.6977,-8.6977,-8.7003,-8.6989,-8.6962,-8.6961,-8.6959,-8.6958,0,-8.6373,-8.6381,-8.6515,-8.6562,-8.6576,-8.6665,-8.6703,-8.6775,-8.6785,-8.6885,-8.6908,-8.6922,-8.7007,-8.7008,-8.7104,-8.7101,-8.7245,-8.7228,-8.7229,-8.7225,-8.732,-8.7311,-8.7629,-8.767,-8.7392,-8.7395,-8.7397,0,-8.651,-8.6596,-8.6653,-8.6704,-8.6736,-8.6819,-8.6869,-8.6861,-8.6914,-8.6979,-8.7043,-8.7126,-8.7191,-8.7329,-8.7346,-8.742,-8.7404,-8.751,-8.7414,-8.7418,-8.7405,-8.74,-8.7408,-8.7529,-8.7532,-8.7534,-8.7536,0,-8.6754,-8.6754,-8.6829,-8.6907,-8.6968,-8.7028,-8.7083,-8.7126,-8.7125,-8.7186,-8.7274,-8.7326,-8.7426,-8.7507,-8.7579,-8.7603,-8.757,-8.7567,-8.7592,-8.7599,-8.7596,-8.7599,-8.728,-8.7559,-8.7557,-8.7555,-8.7554,-8.7553,-8.6929,-8.7003,-8.7055,-8.714,-8.7181,-8.7234,-8.7305,-8.7324,-8.7399,-8.7482,-8.7472,-8.757,-8.7617,-8.771,-8.7742,-8.7817,-8.7779,-8.7817,-8.7826,-8.7836,-8.7846,-8.7585,-8.783,-8.7829,-8.7829,-8.7828,-8.7828,0,-8.717,-8.7202,-8.728,-8.736,-8.7427,-8.7392,-8.7451,-8.7509,-8.7597,-8.7645,-8.7711,-8.7813,-8.7892,-8.7917,-8.7993,-8.8049,-8.8035,-8.8069,-8.8064,-8.807,-8.7875,-8.7845,-8.8079,-8.8079,-8.8079,-8.8079,-8.8079,-8.8078,-8.7303,-8.7428,-8.7435,-8.7579,-8.7609,-8.7707,-8.7744,-8.7792,-8.7831,-8.7947,-8.8014,-8.803,-8.8069,-8.8148,-8.8219,-8.8224,-8.8253,-8.8294,-8.8292,-8.8109,-8.8084,-8.806,-8.8032,-8.83,-8.8301,-8.8481,-8.8483,-8.8484]}]]